Date String (YYYY-MM-DD hh:mm:ss) UTC,Instrument flags,Ambient pressure (hPa),Sample flow (lpm),Bypass flow (lpm),Sample temperature (°C),Ambient temperature (°C),ASC tube jacket temperature (°C),LED temperature (°C),Box temperature (°C),Sample RH (%),Span deviation,Mass concentration (μg/m³),Mass concentration (μg/m³),Mass concentration (μg/m³)
DateTimeUTC,F1_M11,P_M11,Q1_M11,Q2_M11,T1_M11,T2_M11,T3_M11,T4_M11,T5_M11,U1_M11,ZSPAN_M11,X0_M11,X2_M11,X1_M11
2021-12-29 00:00:00,,0810.9,5.00,0.00,21.7,21.0,00.0,30.9,23.2,06.2,0000.0,0013.52,0002.50,0000.75
2021-12-29 00:01:00,,0810.9,5.01,0.00,21.6,20.9,00.0,30.9,23.1,06.2,0000.0,0012.28,0002.60,0000.74
2021-12-29 00:02:00,,0811.0,5.01,0.00,21.6,20.9,00.0,30.9,23.1,06.2,0000.0,0012.92,0002.62,0000.73
2021-12-29 00:03:00,,0810.9,4.99,0.00,21.5,20.8,00.0,30.8,23.0,06.2,0000.0,0012.87,0002.70,0000.74
2021-12-29 00:04:00,,0810.9,5.01,0.00,21.6,21.2,00.0,30.8,23.2,06.3,0000.0,0013.06,0002.69,0000.74
2021-12-29 00:05:00,,0811.0,5.01,0.00,21.7,22.1,00.0,30.9,23.5,06.2,0000.0,0012.21,0002.68,0000.73
2021-12-29 00:06:00,,0811.0,4.98,0.00,21.9,22.8,00.0,30.9,23.8,06.1,0000.0,0012.19,0002.64,0000.73
2021-12-29 00:07:00,,0811.0,5.01,0.00,22.0,22.6,00.0,30.9,23.9,06.1,0000.0,0012.37,0002.53,0000.72
2021-12-29 00:08:00,,0811.0,5.01,0.00,21.9,22.3,00.0,30.9,23.7,06.1,0000.0,0011.41,0002.55,0000.70
2021-12-29 00:09:00,,0811.0,4.99,0.00,21.9,22.1,00.0,30.9,23.6,06.1,0000.0,0011.60,0002.58,0000.70
2021-12-29 00:10:00,,0811.0,5.00,0.00,21.9,21.9,00.0,30.9,23.5,06.1,0000.0,0011.61,0002.59,0000.70
2021-12-29 00:11:00,,0811.0,5.00,0.00,21.9,21.7,00.0,30.9,23.5,06.1,0000.0,0011.08,0002.55,0000.69
2021-12-29 00:12:00,,0811.1,5.01,0.00,21.9,21.6,00.0,30.9,23.5,06.1,0000.0,0011.14,0002.47,0000.68
2021-12-29 00:13:00,,0811.0,5.00,0.00,21.8,21.5,00.0,30.9,23.4,06.1,0000.0,0012.79,0002.48,0000.68
2021-12-29 00:14:00,,0811.0,5.01,0.00,21.8,21.4,00.0,30.9,23.4,06.1,0000.0,0012.80,0002.45,0000.69
2021-12-29 00:15:00,,0811.0,5.01,0.00,21.8,21.4,00.0,30.9,23.4,06.1,0000.0,0013.17,0002.57,0000.69
2021-12-29 00:16:00,,0811.0,4.99,0.00,21.8,21.3,00.0,30.9,23.4,06.1,0000.0,0013.37,0002.58,0000.69
2021-12-29 00:17:00,,0811.0,4.99,0.00,21.8,21.3,00.0,30.9,23.4,06.1,0000.0,0012.67,0002.58,0000.69
2021-12-29 00:18:00,,0811.0,5.00,0.00,21.8,21.3,00.0,30.9,23.4,06.1,0000.0,0012.41,0002.66,0000.70
2021-12-29 00:19:00,,0811.0,5.00,0.00,21.8,21.3,00.0,30.9,23.4,06.1,0000.0,0014.12,0002.61,0000.69
2021-12-29 00:20:00,,0811.0,5.00,0.00,21.8,21.3,00.0,30.9,23.4,06.1,0000.0,0014.70,0002.61,0000.69
2021-12-29 00:21:00,,0811.0,5.01,0.00,21.8,21.3,00.0,30.9,23.4,06.1,0000.0,0015.02,0002.59,0000.69
2021-12-29 00:22:00,,0811.0,5.00,0.00,21.8,21.2,00.0,30.9,23.4,06.1,0000.0,0015.91,0002.56,0000.70
2021-12-29 00:23:00,,0810.9,4.99,0.00,21.8,21.2,00.0,30.9,23.4,06.1,0000.0,0016.04,0002.55,0000.71
2021-12-29 00:24:00,,0810.9,5.01,0.00,21.8,21.2,00.0,30.9,23.4,06.1,0000.0,0014.18,0002.54,0000.70
2021-12-29 00:25:00,,0811.0,4.99,0.00,21.8,21.2,00.0,30.9,23.4,06.1,0000.0,0014.11,0002.57,0000.69
2021-12-29 00:26:00,,0811.0,5.00,0.00,21.8,21.2,00.0,30.9,23.4,06.1,0000.0,0013.92,0002.55,0000.70
2021-12-29 00:27:00,,0811.0,4.99,0.00,21.8,21.2,00.0,30.9,23.4,06.1,0000.0,0013.78,0002.57,0000.70
2021-12-29 00:28:00,,0811.0,4.98,0.00,21.8,21.2,00.0,30.9,23.4,06.1,0000.0,0014.33,0002.55,0000.71
2021-12-29 00:29:00,,0811.0,5.01,0.00,21.8,21.2,00.0,30.9,23.4,06.1,0000.0,0015.18,0002.48,0000.70
2021-12-29 00:30:00,,0811.0,4.98,0.00,21.8,21.5,00.0,30.9,23.5,06.1,0000.0,0014.09,0002.50,0000.71
2021-12-29 00:31:00,,0811.1,5.00,0.00,22.0,22.3,00.0,30.9,23.8,06.1,0000.0,0013.77,0002.53,0000.71
2021-12-29 00:32:00,,0811.0,5.00,0.00,22.1,22.9,00.0,31.0,24.0,06.0,0000.0,0014.10,0002.55,0000.71
2021-12-29 00:33:00,,0811.0,4.99,0.00,22.2,22.8,00.0,31.0,24.1,06.0,0000.0,0013.85,0002.60,0000.70
2021-12-29 00:34:00,,0811.1,5.00,0.00,22.2,22.5,00.0,31.0,24.0,06.0,0000.0,0014.52,0002.62,0000.70
2021-12-29 00:35:00,,0811.0,5.00,0.00,22.2,22.3,00.0,31.0,23.9,06.0,0000.0,0014.93,0002.60,0000.70
2021-12-29 00:36:00,,0811.0,5.01,0.00,22.1,22.1,00.0,31.0,23.8,06.0,0000.0,0015.41,0002.53,0000.70
2021-12-29 00:37:00,,0811.0,5.00,0.00,22.1,22.0,00.0,31.1,23.7,06.0,0000.0,0016.46,0002.45,0000.70
2021-12-29 00:38:00,,0811.0,5.00,0.00,22.1,21.9,00.0,31.1,23.7,06.0,0000.0,0016.21,0002.47,0000.70
2021-12-29 00:39:00,,0811.0,4.99,0.00,22.1,21.7,00.0,31.1,23.7,06.0,0000.0,0016.12,0002.50,0000.69
2021-12-29 00:40:00,,0811.1,5.00,0.00,22.0,21.7,00.0,31.1,23.6,06.0,0000.0,0015.10,0002.44,0000.68
2021-12-29 00:41:00,,0811.1,4.99,0.00,22.0,21.6,00.0,31.1,23.6,06.0,0000.0,0014.64,0002.39,0000.69
2021-12-29 00:42:00,,0811.2,5.01,0.00,22.0,21.5,00.0,31.1,23.6,06.0,0000.0,0014.34,0002.39,0000.70
2021-12-29 00:43:00,,0811.2,4.98,0.00,22.0,21.5,00.0,31.0,23.6,06.0,0000.0,0014.31,0002.35,0000.71
2021-12-29 00:44:00,,0811.2,5.00,0.00,22.0,21.4,00.0,31.0,23.6,06.0,0000.0,0014.27,0002.29,0000.71
2021-12-29 00:45:00,,0811.2,4.99,0.00,22.0,21.4,00.0,31.0,23.5,06.0,0000.0,0013.37,0002.28,0000.71
2021-12-29 00:46:00,,0811.2,5.01,0.00,22.0,21.4,00.0,31.0,23.5,06.0,0000.0,0013.25,0002.34,0000.72
2021-12-29 00:47:00,,0811.3,5.00,0.00,21.9,21.3,00.0,31.0,23.5,06.1,0000.0,0012.35,0002.35,0000.73
2021-12-29 00:48:00,,0811.3,5.00,0.00,21.9,21.3,00.0,31.0,23.5,06.1,0000.0,0012.05,0002.43,0000.74
2021-12-29 00:49:00,,0811.4,5.01,0.00,21.9,21.3,00.0,31.0,23.5,06.0,0000.0,0013.00,0002.45,0000.74
2021-12-29 00:50:00,,0811.4,5.00,0.00,21.9,21.3,00.0,31.0,23.5,06.0,0000.0,0012.97,0002.55,0000.75
2021-12-29 00:51:00,,0811.4,5.01,0.00,21.9,21.3,00.0,31.0,23.5,06.0,0000.0,0013.27,0002.74,0000.83
2021-12-29 00:52:00,,0811.5,4.99,0.00,21.9,21.4,00.0,31.0,23.5,06.1,0000.0,0014.40,0002.88,0000.95
2021-12-29 00:53:00,,0811.5,5.00,0.00,22.0,22.0,00.0,31.0,23.8,06.1,0000.0,0014.63,0002.99,0001.02
2021-12-29 00:54:00,,0811.5,5.02,0.00,22.1,22.8,00.0,31.1,24.1,06.0,0000.0,0015.63,0003.13,0001.07
2021-12-29 00:55:00,,0811.6,5.00,0.00,22.3,23.1,00.0,31.1,24.3,06.0,0000.0,0016.15,0003.20,0001.10
2021-12-29 00:56:00,,0811.6,5.00,0.00,22.3,22.8,00.0,31.1,24.3,06.0,0000.0,0016.90,0003.27,0001.13
2021-12-29 00:57:00,,0811.6,4.99,0.00,22.3,22.6,00.0,31.2,24.2,06.1,0000.0,0017.42,0003.25,0001.14
2021-12-29 00:58:00,,0811.6,5.00,0.00,22.3,22.4,00.0,31.2,24.2,06.1,0000.0,0019.00,0003.27,0001.14
2021-12-29 00:59:00,,0811.7,4.99,0.00,22.4,22.3,00.0,31.2,24.1,06.0,0000.0,0019.41,0003.29,0001.15
